Regional Weather Roundup
Issued by NWS

Home | Current Version | Previous Version | Text Only | Print | Product List | Glossary Off
Versions: 1 2 3 4 5 6 7 8 9 10 11 12 13 14 15 16 17 18 19 20 21 22 23 24 25 26 27 28 29 30 31 32 33 34 35 36 37 38 39 40 41 42 43 44 45 46 47 48 49 50

000
ASUS43 KFSD 181402
RWRSD

WEATHER ROUNDUP FOR SOUTH DAKOTA
NATIONAL WEATHER SERVICE SIOUX FALLS SD
900 AM CDT WED OCT 18 2017

NOTE: "FAIR" INDICATES FEW OR NO CLOUDS BELOW 12,000 FEET WITH NO
SIGNIFICANT WEATHER AND/OR OBSTRUCTIONS TO VISIBILITY.


SDZ001>005-009-010-012>017-181500-
NORTHWEST AND NORTH CENTRAL SOUTH DAKOTA

CITY           SKY/WX    TMP DP  RH WIND       PRES   REMARKS
BUFFALO          N/A     44  27  51 NW15      29.94R
FAITH            N/A     51  25  36 N29G37    29.94R
MOBRIDGE       PTCLDY    56  30  37 NW15      29.88R
$$

SDZ012>016-024>037-041>051-057-063-072>074-181500-
SOUTHWEST AND SOUTH CENTRAL SOUTH DAKOTA

CITY           SKY/WX    TMP DP  RH WIND       PRES   REMARKS
RAPID CTY ARPT CLEAR     49  28  44 N14       30.03R
PIERRE         PTCLDY    52  34  50 N13       29.89R
CUSTER         CLOUDY    51  16  24 W6        30.05R
ELLSWORTH AFB  CLEAR     51  27  39 N14       30.03R
PHILIP         CLEAR     55  31  39 N10       29.96R
PINE RIDGE     CLEAR     41  27  57 NW3       30.00R
SPEARFISH      FAIR      45  28  53 SW3       30.06R
WINNER         FAIR      54  32  43 NW7       29.88R
$$

SDZ004>011-016>023-039-040-181500-
NORTHEAST SOUTH DAKOTA

CITY           SKY/WX    TMP DP  RH WIND       PRES   REMARKS
ABERDEEN       CLOUDY    41  37  86 CALM      29.84R
WATERTOWN      CLOUDY    46  42  86 W5        29.80R
BROOKINGS      CLOUDY    47  43  86 CALM      29.80R
SISSETON         N/A     60  37  42 NW15      29.77R
$$

SDZ017-020-022-023-036>040-048>070-181500-
SOUTHEAST SOUTH DAKOTA

CITY           SKY/WX    TMP DP  RH WIND       PRES   REMARKS
SIOUX FALLS    CLOUDY    54  46  74 S7        29.79S
HURON          MOSUNNY   44  41  89 W6        29.83R
MITCHELL       MOSUNNY   46  42  86 CALM      29.81R
YANKTON          N/A     51  44  77 S7        29.80R
$$

ABBREVIATIONS USED IN REMARKS
   TC - TEMPERATURE IN CELSIUS
  WCI - WIND CHILL INDEX
   HX - HEAT INDEX
  VSB - VISIBILITY





USA.gov is the U.S. government's official web portal to all federal, state and local government web resources and services.